Location: Zagreb
(45.8000°N, 16.0000°E)
Time: 20:10:41
(UTC+02:00)

A-11 Canister half - Pass Details

Date: 15 August 2022
Orbit: 1524 x 1684 km, 47.3° (Epoch: 05 October)

Event Time Altitude Azimuth Distance (km) Brightness Sun altitude
Rises 13:28:08 0° 290° (WNW) 4,921 11.6 57.6°
Reaches altitude 10° 13:32:37 10° 273° (W) 3,910 11.4 57.5°
Maximum altitude 13:38:40 18° 235° (SW) 3,258 11.4 57.2°
Drops below altitude 10° 13:44:39 10° 197° (SSW) 3,826 11.8 56.8°
Sets 13:49:01 0° 179° (S) 4,777 12.0 56.6°
